KC5TIL-3 Weather Reports


time (UTC)temp
F
wind
direction
speed
knots
gust
knots
rain 1hr
in
rain 24hr
in
rain mn
in
humidity
%
barometer
mb
20260506124840 55 25 6.1 13.0 0.00 0.00 0.00 51 1010.8
20260506124342 55 5 9.6 12.2 0.00 0.00 0.00 50 1010.8
20260506123343 55 30 10.4 13.0 0.00 0.00 0.00 49 1010.8
20260506122844 55 287 7.8 12.2 0.00 0.00 0.00 48 1010.8
20260506121827 55 19 8.7 13.9 0.00 0.00 0.00 47 1009.8
20260506121328 55 37 7.8 13.0 0.00 0.00 0.00 47 1009.8
20260506120827 56 10 6.1 13.9 0.00 0.00 0.00 47 1009.8
20260506120329 55 47 10.4 13.9 0.00 0.00 0.00 47 1010.8
20260506115832 56 22 9.6 12.2 0.00 0.00 0.00 47 1010.8
20260506115324 56 44 9.6 8.7 0.00 0.00 0.00 47 1010.8
20260506114826 56 11 6.1 12.2 0.00 0.00 0.00 46 1009.8
20260506114328 56 32 8.7 9.6 0.00 0.00 0.00 46 1009.8
20260506113827 56 18 6.1 10.4 0.00 0.00 0.00 45 1009.8
20260506113329 56 13 6.1 12.2 0.00 0.00 0.00 45 1009.8
20260506112831 56 25 6.1 12.2 0.00 0.00 0.00 45 1009.8
20260506112329 56 25 8.7 11.3 0.00 0.00 0.00 45 1009.8
20260506111831 56 37 7.0 10.4 0.00 0.00 0.00 45 1009.8
20260506111334 57 57 7.8 11.3 0.00 0.00 0.00 46 1009.8
20260506110832 57 37 7.0 13.9 0.00 0.00 0.00 46 1009.8
20260506110333 57 17 7.8 11.3 0.00 0.00 0.00 47 1009.8
20260506105335 57 21 9.6 13.0 0.00 0.00 0.00 46 1009.8
20260506104836 57 17 7.8 13.0 0.00 0.00 0.00 46 1008.8
20260506103338 57 307 4.3 10.4 0.00 0.00 0.00 47 1008.8
20260506102841 58 339 8.7 11.3 0.00 0.00 0.00 47 1008.8
20260506102340 58 20 7.0 10.4 0.00 0.00 0.00 48 1008.8
20260506101841 58 23 8.7 10.4 0.00 0.00 0.00 48 1008.8
20260506100841 58 6 6.1 10.4 0.00 0.00 0.00 48 1008.8
20260506100339 58 324 4.3 10.4 0.00 0.00 0.00 48 1008.8
20260506095334 58 318 4.3 9.6 0.00 0.00 0.00 48 1008.8
20260506094836 58 356 6.1 9.6 0.00 0.00 0.00 48 1007.8
20260506093837 58 24 7.0 9.6 0.00 0.00 0.00 47 1007.8
20260506092339 58 26 7.8 10.4 0.00 0.00 0.00 48 1007.8
20260506091841 58 16 5.2 7.8 0.00 0.00 0.00 48 1007.8
20260506090842 59 7 7.0 10.4 0.00 0.00 0.00 48 1007.8
20260506090343 59 347 7.8 9.6 0.00 0.00 0.00 48 1007.8
20260506085846 59 30 6.1 8.7 0.00 0.00 0.00 48 1007.8
20260506085339 59 12 7.0 8.7 0.00 0.00 0.00 48 1007.8
20260506084841 59 20 5.2 9.6 0.00 0.00 0.00 48 1007.8
20260506083842 59 31 8.7 9.6 0.00 0.00 0.00 48 1007.8
20260506083343 60 2 6.1 8.7 0.00 0.00 0.00 48 1007.8
20260506082342 60 21 6.1 9.6 0.00 0.00 0.00 48 1007.8
20260506081845 60 9 6.1 9.6 0.00 0.00 0.00 47 1007.8
20260506080835 60 4 6.1 7.0 0.00 0.00 0.00 47 1007.8
20260506073333 61 26 5.2 7.8 0.00 0.00 0.00 50 1007.8
20260506072334 61 180 3.5 7.0 0.00 0.00 0.00 50 1007.8
20260506071338 61 19 6.1 7.8 0.00 0.00 0.00 50 1006.8
20260506070835 61 345 4.3 9.6 0.00 0.00 0.00 51 1006.8
20260506062328 61 34 7.0 8.7 0.00 0.00 0.00 51 1006.8
20260506061830 61 35 6.1 10.4 0.00 0.00 0.00 51 1007.8
20260506061331 61 154 6.1 11.3 0.00 0.00 0.00 51 1007.8
20260506060830 61 45 8.7 11.3 0.00 0.00 0.00 51 1007.8
20260506060333 62 5 6.1 11.3 0.00 0.00 0.00 51 1007.8
20260506051341 63 28 7.8 11.3 0.00 0.00 0.00 48 1007.8
20260506050342 64 36 7.8 10.4 0.00 0.00 0.00 47 1007.8
20260506044346 64 15 7.8 9.6 0.00 0.00 0.00 47 1006.8
20260506042844 65 24 8.7 13.0 0.00 0.00 0.00 47 1006.8
20260506042342 65 5 7.0 11.3 0.00 0.00 0.00 47 1006.8
20260506041845 65 81 7.0 14.8 0.00 0.00 0.00 46 1007.8
20260506041346 66 31 8.7 11.3 0.00 0.00 0.00 46 1007.8
20260506035848 67 335 7.8 9.6 0.00 0.00 0.00 44 1006.8
20260506035347 67 20 6.1 12.2 0.00 0.00 0.00 43 1006.8
20260506034850 67 343 6.1 12.2 0.00 0.00 0.00 43 1006.8
20260506034351 67 16 6.1 10.4 0.00 0.00 0.00 43 1006.8
20260506033845 67 34 6.1 13.0 0.00 0.00 0.00 42 1006.8
20260506033343 67 17 7.0 12.2 0.00 0.00 0.00 42 1006.8
20260506032844 67 31 7.8 12.2 0.00 0.00 0.00 41 1006.8
20260506031845 68 334 7.8 12.2 0.00 0.00 0.00 40 1005.8
20260506030845 68 38 7.8 13.0 0.00 0.00 0.00 40 1005.8
20260506030347 68 4 8.7 12.2 0.00 0.00 0.00 39 1005.8
20260506025850 68 21 7.0 10.4 0.00 0.00 0.00 38 1005.8
20260506024845 69 25 8.7 13.0 0.00 0.00 0.00 37 1005.8
20260506024346 69 10 10.4 11.3 0.00 0.00 0.00 37 1005.8
20260506023845 69 28 8.7 13.0 0.00 0.00 0.00 36 1005.8
20260506022845 69 17 9.6 12.2 0.00 0.00 0.00 36 1005.8
20260506022342 70 14 6.1 13.0 0.00 0.00 0.00 37 1005.8
20260506020343 71 18 6.1 12.2 0.00 0.00 0.00 36 1004.8
20260506015343 71 314 9.6 13.0 0.00 0.00 0.00 36 1004.8
20260506014845 72 53 6.1 13.0 0.00 0.00 0.00 35 1003.8
20260506014346 72 356 9.6 11.3 0.00 0.00 0.00 35 1003.8
20260506012848 73 48 8.7 10.4 0.00 0.00 0.00 33 1003.8
20260506011346 74 33 8.7 11.3 0.00 0.00 0.00 33 1003.8
20260506005844 75 315 5.2 7.0 0.00 0.00 0.00 31 1003.8
20260506005343 76 6 5.2 8.7 0.00 0.00 0.00 31 1003.8
20260506004845 76 36 6.1 8.7 0.00 0.00 0.00 31 1002.8
20260506004342 76 11 7.0 10.4 0.00 0.00 0.00 29 1002.8
20260506003831 76 346 7.8 10.4 0.00 0.00 0.00 29 1002.8
20260506002830 76 356 6.1 7.0 0.00 0.00 0.00 28 1002.8
20260506002329 77 41 4.3 7.0 0.00 0.00 0.00 27 1002.8
20260506001832 77 317 2.6 8.7 0.00 0.00 0.00 26 1002.8
20260506001328 77 337 4.3 9.6 0.00 0.00 0.00 26 1002.8
20260506000330 77 7 6.1 9.6 0.00 0.00 0.00 26 1002.8
20260505235829 78 356 4.3 10.4 0.00 0.00 0.00 26 1002.8
20260505234325 79 5 4.3 9.6 0.00 0.00 0.00 25 1002.8
20260505233322 79 46 3.5 9.6 0.00 0.00 0.00 24 1002.8
20260505232823 79 252 6.1 13.0 0.00 0.00 0.00 24 1002.8
20260505231824 80 329 3.5 12.2 0.00 0.00 0.00 24 1001.8
20260505231326 81 330 4.3 10.4 0.00 0.00 0.00 24 1001.8
20260505230903 82 342 7.0 8.7 0.00 0.00 0.00 23 1001.8
20260505230824 82 342 7.0 8.7 0.00 0.00 0.00 23 1001.8
20260505230326 83 340 4.3 9.6 0.00 0.00 0.00 20 1001.8
20260505225824 84 347 6.1 7.8 0.00 0.00 0.00 19 1001.8
20260505224824 84 14 6.1 10.4 0.00 0.00 0.00 19 1001.8
20260505224326 84 305 5.2 10.4 0.00 0.00 0.00 18 1001.8
20260505223322 85 288 5.2 7.8 0.00 0.00 0.00 18 1001.8
20260505222824 87 318 4.3 10.4 0.00 0.00 0.00 18 1001.8
20260505222317 86 351 3.5 10.4 0.00 0.00 0.00 18 1001.8
20260505221819 87 6 7.0 7.0 0.00 0.00 0.00 18 1001.8
20260505221321 90 297 3.5 6.1 0.00 0.00 0.00 17 1001.8
20260505220820 90 341 2.6 7.0 0.00 0.00 0.00 17 1001.8
20260505220322 90 276 2.6 8.7 0.00 0.00 0.00 17 1001.8
20260505215823 90 294 4.3 6.1 0.00 0.00 0.00 17 1001.8
20260505214824 90 321 4.3 6.1 0.00 0.00 0.00 17 1001.8
20260505214326 91 299 3.5 4.3 0.00 0.00 0.00 17 1001.8
20260505213327 91 204 2.6 6.1 0.00 0.00 0.00 17 1001.8
20260505212828 91 259 2.6 5.2 0.00 0.00 0.00 17 1001.8
20260505211829 90 271 3.5 6.1 0.00 0.00 0.00 17 1001.8
20260505211331 90 208 4.3 7.0 0.00 0.00 0.00 17 1001.8
20260505210929 90 187 3.5 10.4 0.00 0.00 0.00 17 1001.8
20260505210830 90 187 3.5 10.4 0.00 0.00 0.00 17 1001.8
20260505210331 90 29 3.5 9.6 0.00 0.00 0.00 17 1001.8
20260505205824 89 223 5.2 11.3 0.00 0.00 0.00 17 1001.8
20260505204825 90 183 3.5 8.7 0.00 0.00 0.00 18 1001.8
20260505204326 89 188 4.3 9.6 0.00 0.00 0.00 17 1001.8
20260505203826 90 261 3.5 6.1 0.00 0.00 0.00 17 1001.8
20260505202829 88 235 8.7 8.7 0.00 0.00 0.00 18 1001.8
20260505201830 89 176 3.5 10.4 0.00 0.00 0.00 18 1002.8
20260505201327 89 202 4.3 8.7 0.00 0.00 0.00 18 1002.8
20260505200826 88 213 6.1 8.7 0.00 0.00 0.00 19 1002.8
20260505200327 88 198 6.1 13.0 0.00 0.00 0.00 19 1002.8
20260505195829 88 142 6.1 10.4 0.00 0.00 0.00 19 1002.8
20260505195328 89 65 5.2 13.9 0.00 0.00 0.00 18 1002.8
20260505194830 88 100 5.2 15.6 0.00 0.00 0.00 20 1002.8
20260505194332 87 184 7.8 11.3 0.00 0.00 0.00 20 1002.8
20260505193830 87 210 8.7 15.6 0.00 0.00 0.00 20 1002.8
20260505193332 88 131 5.2 10.4 0.00 0.00 0.00 21 1002.8
20260505192333 87 226 8.7 16.5 0.00 0.00 0.00 22 1002.8
20260505191337 86 220 8.7 10.4 0.00 0.00 0.00 23 1002.8
20260505190835 87 7 6.1 10.4 0.00 0.00 0.00 22 1002.8
20260505190332 87 206 6.1 19.1 0.00 0.00 0.00 24 1002.8
20260505185834 87 150 5.2 13.0 0.00 0.00 0.00 23 1002.8
20260505185332 86 214 8.7 11.3 0.00 0.00 0.00 25 1002.8
20260505184825 86 226 6.1 17.4 0.00 0.00 0.00 26 1002.8
20260505184327 84 156 9.6 13.0 0.00 0.00 0.00 29 1002.8
20260505183826 85 196 7.0 15.6 0.00 0.00 0.00 29 1002.8
20260505183328 84 197 8.7 17.4 0.00 0.00 0.00 30 1002.8
20260505182328 83 217 9.6 13.9 0.00 0.00 0.00 31 1002.8
20260505181830 83 184 6.1 16.5 0.00 0.00 0.00 31 1002.8
20260505180830 83 176 7.8 15.6 0.00 0.00 0.00 30 1002.8
20260505180327 82 159 8.7 15.6 0.00 0.00 0.00 32 1002.8
20260505175830 82 141 9.6 18.2 0.00 0.00 0.00 31 1002.8
20260505175328 82 188 13.0 15.6 0.00 0.00 0.00 34 1002.8
20260505174825 82 198 10.4 15.6 0.00 0.00 0.00 33 1002.8
20260505174322 81 226 13.0 15.6 0.00 0.00 0.00 34 1002.8
20260505173821 81 152 11.3 13.0 0.00 0.00 0.00 35 1002.8
20260505173323 81 216 9.6 12.2 0.00 0.00 0.00 34 1002.8
20260505172825 81 242 7.8 15.6 0.00 0.00 0.00 36 1002.8
20260505172323 80 187 13.0 18.2 0.00 0.00 0.00 37 1002.8
20260505171825 80 215 13.0 17.4 0.00 0.00 0.00 38 1002.8
20260505171323 79 203 10.4 19.1 0.00 0.00 0.00 38 1002.8
20260505170821 79 189 11.3 19.1 0.00 0.00 0.00 39 1002.8
20260505170322 79 192 12.2 10.4 0.00 0.00 0.00 39 1002.8
20260505165825 80 158 5.2 17.4 0.00 0.00 0.00 37 1002.8
20260505164825 79 212 9.6 17.4 0.00 0.00 0.00 39 1002.8
20260505164327 78 184 13.9 13.9 0.00 0.00 0.00 40 1002.8
20260505163825 79 193 8.7 15.6 0.00 0.00 0.00 40 1002.8
20260505163327 79 198 7.8 17.4 0.00 0.00 0.00 40 1002.8
20260505162829 79 182 7.8 16.5 0.00 0.00 0.00 41 1002.8
20260505162328 78 186 12.2 20.9 0.00 0.00 0.00 41 1002.8
20260505161829 77 226 12.2 18.2 0.00 0.00 0.00 42 1002.8
20260505161332 78 213 11.3 21.7 0.00 0.00 0.00 42 1002.8
20260505160825 77 212 12.2 18.2 0.00 0.00 0.00 43 1002.8
20260505160326 77 178 13.0 18.2 0.00 0.00 0.00 43 1002.8
20260505153327 76 115 11.3 20.9 0.00 0.00 0.00 49 1002.8
20260505152322 75 211 13.0 16.5 0.00 0.00 0.00 50 1002.8
20260505151824 75 146 12.2 13.9 0.00 0.00 0.00 51 1002.8
20260505150326 75 187 10.4 20.9 0.00 0.00 0.00 51 1002.8